Regional Weather Roundup
Issued by NWS

Home | Current Version | Previous Version | Text Only | Print | Product List | Glossary On
Versions: 1 2 3 4 5 6 7 8 9 10 11 12 13 14 15 16 17 18 19 20 21 22 23 24 25 26 27 28 29 30 31 32 33 34 35 36 37 38 39 40 41 42 43 44 45 46 47 48 49 50
621
ASUS46 KPQR 071810
RWROR

OREGON REGIONAL WEATHER ROUNDUP
NATIONAL WEATHER SERVICE PORTLAND OR
1000 AM PST SUN FEB 07 2016

NOTE: "FAIR" INDICATES FEW OR NO CLOUDS BELOW 12,000 FEET WITH
NO SIGNIFICANT WEATHER AND/OR OBSTRUCTIONS TO VISIBILITY.

ORZ001>013-071900-
NORTHWEST OREGON


CITY           SKY/WX    TMP DP  RH WIND       PRES   REMARKS
ASTORIA        MOSUNNY   51  44  77 E7        30.47F
6HR MIN TEMP:  44; 6HR MAX TEMP:  51;

NEWPORT        SUNNY     52  48  87 E12       30.47S
PORTLAND       MOSUNNY   49  41  74 NW3       30.54R
6HR MIN TEMP:  44; 6HR MAX TEMP:  49;

VANCOUVER WA   SUNNY     48  41  76 SW5       30.54R
6HR MIN TEMP:  43; 6HR MAX TEMP:  48;

SCAPPOOSE      CLOUDY    47  43  86 CALM      30.54R
6HR MIN TEMP:  42; 6HR MAX TEMP:  47;

HILLSBORO      CLOUDY    45  43  93 NW5       30.54R
6HR MIN TEMP:  41; 6HR MAX TEMP:  45;

AURORA         MOSUNNY   49  43  80 N6        30.53S
6HR MIN TEMP:  42; 6HR MAX TEMP:  49;

MCMINNVILLE    CLOUDY    48  44  86 N5        30.54R
6HR MIN TEMP:  45; 6HR MAX TEMP:  48;

SALEM          CLOUDY    47  44  90 N5        30.52R FOG
6HR MIN TEMP:  46; 6HR MAX TEMP:  47;

CORVALLIS      CLOUDY    46  43  87 CALM      30.53R
EUGENE         FOG       47  44  90 N8        30.51R VSB 1
6HR MIN TEMP:  46; 6HR MAX TEMP:  47;

$$

ORZ021-028-071900-
SOUTHWEST OREGON


CITY           SKY/WX    TMP DP  RH WIND       PRES   REMARKS
NORTH BEND     SUNNY     55  52  88 SE6       30.44S
6HR MIN TEMP:  46; 6HR MAX TEMP:  55;

BROOKINGS      SUNNY     59  53  80 CALM      30.38F
ROSEBURG       CLOUDY    49  47  93 W3        30.49S
6HR MIN TEMP:  49; 6HR MAX TEMP:  49;

SEXTON SUMMIT  LGT RAIN  51  41  68 SE13      30.47R
6HR MIN TEMP:  44; 6HR MAX TEMP:  51; 6HR PCP:  2.47;

MEDFORD        CLOUDY    45  42  89 CALM      30.51S
6HR MIN TEMP:  38; 6HR MAX TEMP:  45;

$$

ORZ014>016-041-071900-
COLUMBIA GORGE


CITY           SKY/WX    TMP DP  RH WIND       PRES   REMARKS
TROUTDALE      SUNNY     50  37  61 E20G26    30.53R
6HR MIN TEMP:  45; 6HR MAX TEMP:  50;

THE DALLES     SUNNY     44  34  67 VRB3      30.64R
6HR MIN TEMP:  36; 6HR MAX TEMP:  44;

$$

ORZ029>031-041-044-049-050-061>064-502-503-505>511-071900-
EASTERN OREGON


CITY           SKY/WX    TMP DP  RH WIND       PRES   REMARKS
REDMOND        MOSUNNY   43  34  70 CALM      30.55R
6HR MIN TEMP:  27; 6HR MAX TEMP:  43;

BEND           MOSUNNY   41  36  81 E6        30.56R
PRINEVILLE     MOSUNNY   45  36  70 E6        30.56R
KLAMATH FALLS  MOSUNNY   37  34  89 NW5       30.56S WCI  33
6HR MIN TEMP:  28; 6HR MAX TEMP:  38;

LAKEVIEW       SUNNY     34  25  69 CALM      30.58R
HERMISTON      SUNNY     42  33  70 VRB3      30.62R
6HR MIN TEMP:  26; 6HR MAX TEMP:  42;

PENDLETON      SUNNY     42  31  64 E3        30.58R
6HR MIN TEMP:  29; 6HR MAX TEMP:  42;

JOHN DAY       SUNNY     43  35  71 E8        30.56F
MEACHAM        SUNNY     38  32  79 CALM      30.55R
6HR MIN TEMP:  22; 6HR MAX TEMP:  38;

LA GRANDE      SUNNY     37  28  70 CALM      30.60R
6HR MIN TEMP:  28; 6HR MAX TEMP:  37;

BAKER CITY     SUNNY     26  24  92 W5        30.61S WCI  20
6HR MIN TEMP:  17; 6HR MAX TEMP:  26;

BURNS          MOSUNNY   30  24  78 CALM      30.59R
6HR MIN TEMP:  17; 6HR MAX TEMP:  31;

ROME             N/A     44  31  60 CALM      30.59R
6HR MIN TEMP:  30; 6HR MAX TEMP:  44;

ONTARIO        SUNNY     34  29  82 CALM      30.68R
6HR MIN TEMP:  25; 6HR MAX TEMP:  34;

$$




USA.gov is the U.S. government's official web portal to all federal, state and local government web resources and services.